Time,TemperatureF,DewpointF,PressureIn,WindDirection,WindDirectionDegrees,WindSpeedMPH,WindSpeedGustMPH,Humidity,HourlyPrecipIn,Conditions,Clouds,dailyrainin,SoftwareType,DateUTC
2013-03-25 00:10:00,58.6,56.9,28.73,North,11,0.0,2.0,94,0.00,00:10,,0.00,WeatherDisplay:WD co,2013-03-24 22:10:00,
2013-03-25 00:15:00,58.6,56.9,28.73,East,90,6.0,9.0,94,0.00,00:15,,0.00,WeatherDisplay:WD co,2013-03-24 22:15:00,
2013-03-25 00:20:00,58.6,56.9,28.73,East,90,0.0,8.0,94,0.00,00:20,,0.00,WeatherDisplay:WD co,2013-03-24 22:20:00,
2013-03-25 00:55:00,58.8,55.6,28.72,East,90,0.0,6.0,89,0.00,00:55,,0.00,WeatherDisplay:WD co,2013-03-24 22:55:00,
2013-03-25 02:00:00,59.2,51.3,28.70,NE,40,2.0,7.0,75,0.00,02:00,,0.00,WeatherDisplay:WD co,2013-03-25 00:00:00,
2013-03-25 02:15:00,60.1,49.9,28.69,East,85,8.0,11.0,69,0.00,02:15,,0.00,WeatherDisplay:WD co,2013-03-25 00:15:00,
2013-03-25 03:00:00,60.8,49.4,28.68,North,3,1.0,12.0,66,0.00,03:00,,0.00,WeatherDisplay:WD co,2013-03-25 01:00:00,
2013-03-25 03:25:00,60.6,49.2,28.67,West,270,0.0,9.0,66,0.00,03:25,,0.00,WeatherDisplay:WD co,2013-03-25 01:25:00,
2013-03-25 03:45:00,60.4,49.0,28.67,SSW,206,3.0,6.0,66,0.00,03:45,,0.00,WeatherDisplay:WD co,2013-03-25 01:45:00,
2013-03-25 04:00:00,60.3,49.3,28.67,NE,45,0.0,4.0,67,0.00,04:00,,0.00,WeatherDisplay:WD co,2013-03-25 02:00:00,
2013-03-25 04:15:00,59.2,52.3,28.66,SW,234,0.0,1.0,78,0.00,04:15,,0.00,WeatherDisplay:WD co,2013-03-25 02:15:00,
2013-03-25 04:25:00,58.5,52.0,28.67,SW,224,0.0,1.0,79,0.00,04:25,,0.00,WeatherDisplay:WD co,2013-03-25 02:25:00,
2013-03-25 04:35:00,57.7,51.9,28.66,SSW,212,0.0,0.0,81,0.00,04:35,,0.00,WeatherDisplay:WD co,2013-03-25 02:35:00,
2013-03-25 04:45:00,57.9,52.1,28.67,NW,315,1.0,4.0,81,0.00,04:45,,0.00,WeatherDisplay:WD co,2013-03-25 02:45:00,
2013-03-25 04:50:00,57.7,51.9,28.67,NW,315,0.0,4.0,81,0.00,04:50,,0.00,WeatherDisplay:WD co,2013-03-25 02:50:00,
2013-03-25 05:10:00,58.3,51.4,28.66,South,180,0.0,2.0,78,0.00,05:10,,0.00,WeatherDisplay:WD co,2013-03-25 03:10:00,
2013-03-25 05:15:00,58.6,51.8,28.67,East,96,0.0,8.0,78,0.00,05:15,,0.00,WeatherDisplay:WD co,2013-03-25 03:15:00,
2013-03-25 05:55:00,58.8,53.0,28.66,East,85,0.0,14.0,81,0.00,05:55,,0.00,WeatherDisplay:WD co,2013-03-25 03:55:00,
2013-03-25 06:10:00,59.0,54.2,28.66,East,82,7.0,17.0,84,0.00,06:10,,0.00,WeatherDisplay:WD co,2013-03-25 04:10:00,
2013-03-25 06:30:00,59.0,54.8,28.66,East,90,7.0,17.0,86,0.00,06:30,,0.00,WeatherDisplay:WD co,2013-03-25 04:30:00,
2013-03-25 06:35:00,59.2,54.7,28.66,East,90,7.0,16.0,85,0.00,06:35,,0.00,WeatherDisplay:WD co,2013-03-25 04:35:00,
2013-03-25 06:40:00,59.2,54.7,28.66,East,90,1.0,15.0,85,0.00,06:40,,0.00,WeatherDisplay:WD co,2013-03-25 04:40:00,
2013-03-25 07:45:00,59.9,55.1,28.66,ENE,59,5.0,15.0,84,0.00,07:45,,0.00,WeatherDisplay:WD co,2013-03-25 05:45:00,
2013-03-25 07:50:00,60.1,54.9,28.66,North,9,2.0,15.0,83,0.00,07:50,,0.00,WeatherDisplay:WD co,2013-03-25 05:50:00,
2013-03-25 07:55:00,60.1,54.9,28.66,East,101,0.0,17.0,83,0.00,07:55,,0.00,WeatherDisplay:WD co,2013-03-25 05:55:00,
2013-03-25 08:00:00,60.3,55.1,28.65,NE,46,1.0,18.0,83,0.00,08:00,,0.00,WeatherDisplay:WD co,2013-03-25 06:00:00,
2013-03-25 09:15:00,61.0,55.4,28.59,WSW,247,6.0,19.0,82,0.00,09:15,,0.00,WeatherDisplay:WD co,2013-03-25 07:15:00,
2013-03-25 09:25:00,61.9,54.9,28.58,North,356,13.0,24.0,78,0.00,09:25,,0.00,WeatherDisplay:WD co,2013-03-25 07:25:00,
2013-03-25 09:55:00,65.7,56.8,28.62,NNE,18,0.0,5.0,73,0.00,09:55,,0.00,WeatherDisplay:WD co,2013-03-25 07:55:00,
2013-03-25 10:15:00,67.8,56.0,28.60,NNW,327,3.0,11.0,66,0.00,10:15,,0.00,WeatherDisplay:WD co,2013-03-25 08:15:00,
2013-03-25 10:20:00,68.4,57.0,28.60,NNW,333,0.0,2.0,67,0.00,10:20,,0.00,WeatherDisplay:WD co,2013-03-25 08:20:00,
2013-03-25 10:35:00,67.6,56.3,28.59,ENE,75,3.0,12.0,67,0.00,10:35,,0.00,WeatherDisplay:WD co,2013-03-25 08:35:00,
2013-03-25 10:45:00,67.3,55.5,28.58,NW,311,9.0,21.0,66,0.00,10:45,,0.00,WeatherDisplay:WD co,2013-03-25 08:45:00,
2013-03-25 11:20:00,65.8,55.4,28.57,East,96,7.0,21.0,69,0.00,11:20,,0.00,WeatherDisplay:WD co,2013-03-25 09:20:00,
2013-03-25 11:30:00,66.0,55.6,28.58,NNE,23,7.0,17.0,69,0.00,11:30,,0.00,WeatherDisplay:WD co,2013-03-25 09:30:00,
2013-03-25 11:45:00,65.1,55.1,28.58,ESE,103,15.0,24.0,70,0.00,11:45,,0.00,WeatherDisplay:WD co,2013-03-25 09:45:00,
2013-03-25 12:15:00,63.5,55.4,28.57,East,86,0.0,15.0,75,0.00,RA,,0.01,WeatherDisplay:WD co,2013-03-25 10:15:00,
2013-03-25 12:30:00,63.1,55.4,28.53,East,93,16.0,26.0,76,0.00,RA,,0.01,WeatherDisplay:WD co,2013-03-25 10:30:00,
2013-03-25 13:35:00,66.6,56.5,28.53,NNW,329,9.0,19.0,70,0.00,13:35,,0.01,WeatherDisplay:WD co,2013-03-25 11:35:00,
2013-03-25 14:00:00,66.7,56.6,28.50,NNW,348,8.0,18.0,70,0.00,14:00,,0.01,WeatherDisplay:WD co,2013-03-25 12:00:00,
2013-03-25 14:10:00,66.6,56.1,28.50,ENE,66,12.0,25.0,69,0.00,14:10,,0.01,WeatherDisplay:WD co,2013-03-25 12:10:00,
2013-03-25 14:30:00,65.1,55.5,28.50,ENE,66,10.0,26.0,71,0.00,14:30,,0.01,WeatherDisplay:WD co,2013-03-25 12:30:00,
2013-03-25 14:55:00,64.8,55.5,28.49,WNW,289,13.0,28.0,72,0.00,14:55,,0.01,WeatherDisplay:WD co,2013-03-25 12:55:00,
2013-03-25 15:20:00,64.6,56.1,28.47,NE,39,9.0,26.0,74,0.00,RA,,0.06,WeatherDisplay:WD co,2013-03-25 13:20:00,
2013-03-25 16:10:00,64.2,56.5,28.46,ESE,106,6.0,17.0,76,0.00,16:10,,0.06,WeatherDisplay:WD co,2013-03-25 14:10:00,
2013-03-25 16:40:00,63.5,56.2,28.46,East,85,10.0,17.0,77,0.01,RA,,0.07,WeatherDisplay:WD co,2013-03-25 14:40:00,
2013-03-25 16:50:00,63.3,56.3,28.46,East,90,14.0,23.0,78,0.00,RA,,0.07,WeatherDisplay:WD co,2013-03-25 14:50:00,
2013-03-25 17:00:00,63.1,56.2,28.45,East,85,12.0,27.0,78,0.00,RA,,0.07,WeatherDisplay:WD co,2013-03-25 15:00:00,
2013-03-25 17:40:00,63.0,56.3,28.45,ENE,68,8.0,25.0,79,0.00,17:40,,0.07,WeatherDisplay:WD co,2013-03-25 15:40:00,
2013-03-25 18:10:00,62.6,57.0,28.44,East,88,12.0,30.0,82,0.00,18:10,,0.07,WeatherDisplay:WD co,2013-03-25 16:10:00,
2013-03-25 18:20:00,62.4,57.2,28.44,ENE,73,13.0,29.0,83,0.00,18:20,,0.07,WeatherDisplay:WD co,2013-03-25 16:20:00,
2013-03-25 18:45:00,62.6,56.7,28.44,East,90,12.0,26.0,81,0.00,18:45,,0.07,WeatherDisplay:WD co,2013-03-25 16:45:00,
2013-03-25 18:55:00,62.6,57.0,28.44,North,0,10.0,22.0,82,0.00,18:55,,0.07,WeatherDisplay:WD co,2013-03-25 16:55:00,
2013-03-25 19:20:00,62.4,57.5,28.43,East,97,10.0,20.0,84,0.00,19:20,,0.07,WeatherDisplay:WD co,2013-03-25 17:20:00,
2013-03-25 21:55:00,61.5,58.6,28.43,ENE,71,3.0,15.0,90,0.00,21:55,,0.07,WeatherDisplay:WD co,2013-03-25 19:55:00,
2013-03-25 22:05:00,61.3,58.7,28.42,East,95,3.0,16.0,91,0.00,22:05,,0.07,WeatherDisplay:WD co,2013-03-25 20:05:00,
2013-03-25 23:10:00,60.3,60.0,28.43,SE,124,1.0,16.0,99,0.00,23:10,,0.07,WeatherDisplay:WD co,2013-03-25 21:10:00,
2013-03-25 23:15:00,60.3,60.0,28.42,NNE,21,8.0,13.0,99,0.00,23:15,,0.07,WeatherDisplay:WD co,2013-03-25 21:15:00,
2013-03-25 23:35:00,59.9,59.6,28.41,East,90,6.0,16.0,99,0.00,23:35,,0.07,WeatherDisplay:WD co,2013-03-25 21:35:00,
2013-03-25 23:40:00,59.9,59.6,28.41,East,86,2.0,13.0,99,0.00,23:40,,0.07,WeatherDisplay:WD co,2013-03-25 21:40:00,
2013-03-25 23:50:00,59.9,59.6,28.41,ESE,105,0.0,9.0,99,0.00,23:50,,0.07,WeatherDisplay:WD co,2013-03-25 21:50:00,
2013-03-25 23:55:00,59.9,59.6,28.41,NW,313,6.0,11.0,99,0.00,23:55,,0.07,WeatherDisplay:WD co,2013-03-25 21:55:00,